Location: Unspecified
(33.9239°N, 118.0544°W)
Time: 21:06:58
(UTC-07:00)

Daily predictions for brighter satellites

Satellite Brightness Start Highest point End
(mag) Time Altitude Azimuth Time Altitude Azimuth Time Altitude Azimuth
Cosmos 2263 Rocket 2.2 20:26:21 10° S 20:31:58 64° ESE 20:37:34 10° NNE
Cosmos 1603 3.8 20:31:15 10° NNW 20:36:57 65° ENE 20:42:38 10° SSE
Cosmos 2228 3.6 20:34:53 10° NNW 20:39:14 64° W 20:43:34 10° S
YAOGAN 6 2.6 20:36:07 10° S 20:39:39 82° WSW 20:43:12 10° NNW
Cosmos 1953 2.8 20:36:20 10° N 20:40:06 40° E 20:43:52 10° SSE
ATLAS 2AS CENTAUR R/B 3.9 20:34:36 10° SSE 20:40:24 24° ESE 20:46:28 10° ENE
Cosmos 1707 3.3 20:37:01 10° SSE 20:40:37 38° E 20:44:13 10° NNE
Envisat 3.9 20:36:15 10° S 20:41:10 50° W 20:46:07 10° NNW
Cosmos 2180 Rocket 4.5 20:35:03 10° S 20:41:13 72° E 20:47:21 10° N
Cosmos 1655 Rocket 4.1 20:38:32 10° N 20:44:46 67° E 20:50:56 10° SSE
SJ-11-01 4.5 20:40:26 10° SSE 20:45:05 59° ENE 20:49:45 10° N
OAO 3 Copernicus 4.5 20:42:31 10° W 20:47:36 79° N 20:52:39 10° E
Cosmos 972 Rocket 4.0 20:42:48 10° SSW 20:47:44 82° WNW 20:52:40 10° NNE
SJ-6B 4.5 20:51:00 10° SSW 20:54:31 33° W 20:58:06 10° NNW
Hubble Space Telescope 1.9 20:51:05 10° WSW 20:54:41 29° SSW 20:57:42 13° SE
Cosmos 1378 3.3 20:51:35 10° S 20:55:17 76° W 20:59:01 10° N
Lacrosse 5 2.2 20:53:25 10° SSW 20:58:10 42° ESE 21:02:56 10° NE
Cosmos 1238 Rocket 4.1 21:02:35 13° E 21:02:50 13° E 21:04:17 10° ENE
Cosmos 1400 Rocket 2.8 21:00:49 10° S 21:04:51 68° E 21:08:51 10° NNE
Cosmos 2266 Rocket 4.3 20:59:34 10° N 21:05:46 50° E 21:11:20 12° SSE
CZ-3 Stage 3 3.2 21:03:28 10° WSW 21:06:28 57° SSE 21:17:58 10° E
USA 186 3.6 21:03:30 10° SSW 21:06:31 31° W 21:09:26 10° NNW
Aureole 1 Rocket 2.7 21:07:11 11° S 21:09:48 39° ESE 21:12:56 10° NNE
BREEZE-M R/B 2.3 21:09:13 10° NW 21:12:20 51° NE 21:13:38 23° ESE
USA 215 3.3 21:09:21 14° SE 21:15:08 80° SW 21:21:44 10° NW
Cosmos 468 4.5 21:10:53 10° S 21:16:10 71° ESE 21:21:29 10° NNE
Cosmos 1452 Rocket 3.9 21:11:08 10° N 21:16:15 49° ENE 21:19:48 19° SE
Spot 2 Rocket 3.5 21:11:39 10° SSE 21:16:41 87° WSW 21:21:46 10° NNW
Cosmos 1420 Rocket 4.5 21:14:37 10° N 21:19:34 45° ENE 21:22:46 20° SE
Cosmos 2056 Rocket 4.2 21:15:32 10° NNW 21:20:32 52° WSW 21:25:35 10° S
Cosmos 1943 3.2 21:15:13 10° NNW 21:20:54 89° ENE 21:25:24 16° SSE
ERS-2 2.7 21:19:30 11° S 21:23:00 54° WSW 21:26:36 10° NNW
Cosmos 158 Rocket 4.5 21:19:02 10° SSW 21:24:19 65° WNW 21:29:34 10° N
Cosmos 1470 3.6 21:22:53 10° NNW 21:26:40 49° W 21:30:26 10° SSW
H-2A R/B 2.6 21:23:43 20° SE 21:26:56 45° ENE 21:32:00 10° N
SL-8 R/B 3.7 21:30:33 10° SW 21:35:17 59° SE 21:40:02 10° ENE
ARGOS 3.2 21:33:07 21° SSE 21:36:46 71° ENE 21:42:11 10° N
Cosmos 1607 4.0 21:31:56 10° NNW 21:38:20 87° WSW 21:42:21 24° SSE
OAO 3 Rocket 3.2 21:34:03 10° WSW 21:39:01 89° S 21:43:16 14° E
Cosmos 1844 4.3 21:36:34 24° SSE 21:39:06 35° ESE 21:44:14 10° NE
Meteor 1-24 Rocket 3.9 21:35:05 16° S 21:39:55 60° E 21:45:51 10° NNE
Cosmos 1269 Rocket 4.0 21:36:29 11° S 21:41:31 63° ESE 21:46:46 10° NNE
Cosmos-2242 3.9 21:37:45 10° NNE 21:41:42 32° E 21:42:44 28° ESE
Cosmos 1437 4.1 21:39:20 10° NNE 21:41:49 24° ENE 21:41:49 24° ENE
DMSP B5D2-2 4.4 21:38:50 10° NNE 21:43:52 46° E 21:46:13 28° SSE
Resurs 01 Rocket 3.5 21:41:00 10° SSW 21:44:42 26° W 21:48:26 10° NW
Cosmos 1844 Rocket 2.8 21:40:46 14° S 21:45:28 54° ESE 21:50:58 10° NNE
Meteor 2-5 Rocket 4.0 21:40:01 10° SSW 21:45:57 77° W 21:51:54 10° N
Cosmos 1953 Rocket 3.4 21:47:01 23° S 21:49:39 85° E 21:54:02 10° N
SL-08 RB Rocket 3.7 21:48:10 32° SSE 21:50:19 75° ENE 21:54:59 10° N
MetOp-A 4.1 21:48:11 25° SSE 21:51:27 87° WSW 21:56:50 10° NNW
Cosmos 1758 Rocket 3.9 21:51:45 15° SSW 21:55:26 64° W 21:59:52 10° N
Cosmos 1932 4.4 21:50:44 10° NNW 21:56:56 73° ENE 21:59:48 33° SE
Cosmos 494 Rocket 4.1 21:58:53 36° SSE 22:00:41 52° ESE 22:05:46 10° NNE
USA 245 4.4 21:59:22 32° SSE 22:02:13 74° ENE 22:08:35 10° N
Cosmos 1908 4.1 21:59:25 10° NNE 22:02:47 34° ENE 22:02:47 34° ENE
Helios 1A 3.6 22:03:30 37° E 22:03:57 39° ENE 22:07:51 10° N
Terra 3.2 22:06:06 23° E 22:06:42 23° ENE 22:10:25 10° NNE
Cosmos 1417 Rocket 4.5 22:07:01 32° SSE 22:10:04 67° E 22:16:20 10° NNE
Cosmos 1315 Rocket 4.2 22:07:59 13° SW 22:11:10 37° WNW 22:14:59 10° N
ATLAS 3B R/B 4.1 22:07:42 10° N 22:13:01 25° NE 22:16:10 18° E
Cosmos 2251 Rocket 4.3 22:14:09 33° E 22:14:09 33° E 22:18:33 10° NE
Centaur D-1A AC-35 4.1 22:18:58 10° SW 22:19:56 15° SW 22:19:56 15° SW
CSL-04 DEB 4.4 22:23:00 62° SW 22:23:21 67° WSW 22:27:16 10° NNW
Helios 1B rocket 2.5 22:21:46 10° NNE 22:25:30 62° ENE 22:25:30 62° ENE
ERS-1 Rocket 3.3 22:26:48 40° SSW 22:28:23 60° WSW 22:33:23 10° NNW
Cosmos 1340 3.9 22:25:53 10° N 22:28:30 32° NE 22:28:30 32° NE
Cosmos 1745 Rocket 4.2 22:24:02 10° N 22:30:11 52° E 22:31:27 45° ESE
SPOT 5 2.8 22:29:16 60° SSE 22:30:12 87° ENE 22:35:23 10° NNW
ATLAS 2AS CENTAUR R/B 3.4 22:23:05 10° SW 22:30:43 66° WNW 22:38:49 10° NNE
Cosmos 2221 4.4 22:27:44 10° NNE 22:30:02 19° ENE 22:30:02 19° ENE
OAO 3 Copernicus 4.1 22:27:10 10° W 22:32:14 81° SSW 22:32:44 71° SE
Cosmos 1674 3.4 22:35:38 46° W 22:35:57 47° W 22:39:39 10° N
CZ-2C R/B 3.4 22:31:49 10° NNE 22:36:06 34° E 22:36:06 34° E
Cosmos 921 Rocket 3.0 22:34:14 10° NNW 22:38:39 80° ENE 22:38:39 80° ENE
Meteor 1-21 Rocket 4.3 22:38:37 58° SE 22:39:32 66° E 22:45:20 10° NNE
SL-08 R/B 4.4 22:33:31 10° N 22:39:41 81° E 22:41:10 55° SSE
Lacrosse 5 3.9 22:36:56 10° W 22:41:14 27° NW 22:45:33 10° NNE
CARTOSAT-1 3.7 22:50:26 69° N 22:50:26 69° N 22:54:17 10° N
S3M 4.1 22:49:11 41° SSW 22:51:30 73° W 22:57:54 10° N
SL-14 R/B 4.5 22:55:08 37° NNE 22:55:08 37° NNE 22:57:36 10° N
Cosmos 1346 Rocket 4.4 22:54:12 10° NNW 22:57:37 28° W 22:57:42 28° W
Cosmos 2278 Rocket 2.0 23:02:13 77° ESE 23:02:13 77° ESE 23:07:52 10° NNE
Meteor 2-13 Rocket 4.2 22:57:37 10° N 23:03:43 88° E 23:04:24 72° S
Cosmos 1709 Rocket 4.4 22:57:58 10° N 23:03:56 46° E 23:04:06 46° E
Nimbus 7 Rocket 4.4 22:59:20 10° NNE 23:05:22 86° WNW 23:06:25 63° SSW
SPOT 1/Viking Rocket 4.3 23:05:10 40° WSW 23:05:45 42° W 23:10:38 10° NNW
H-2A R/B 4.1 23:04:20 14° WSW 23:06:31 18° W 23:10:07 10° NW
NOSS 3-4 (A) 3.2 23:07:37 75° SSE 23:07:58 78° ESE 23:14:17 10° NNE
NOSS 3-4 (C) 3.2 23:07:46 76° SSE 23:08:03 77° ESE 23:14:22 10° NNE
Cosmos 1726 3.7 23:04:58 10° NNW 23:07:30 33° NW 23:07:30 33° NW
Cosmos 1461 4.1 23:10:41 40° NE 23:10:41 40° NE 23:13:47 10° NNE
COSMOS 2406 3.1 23:06:50 10° NNW 23:12:38 86° WSW 23:12:43 85° SW
OAO 3 Rocket 4.1 23:17:44 10° W 23:21:04 43° WNW 23:21:04 43° WNW
COBE Rocket 4.5 23:20:33 10° NNE 23:24:33 54° NE 23:24:33 54° NE
Cosmos 2315 Rocket 3.8 23:26:33 84° SSE 23:26:46 87° E 23:33:08 10° N
ADEOS Rocket 4.1 23:25:55 10° NE 23:30:03 31° ENE 23:30:03 31° ENE
USA 234 4.4 23:30:12 10° ENE 23:33:36 28° E 23:33:36 28° E
CZ-2C R/B 3.9 23:41:03 47° W 23:41:03 47° W 23:46:38 10° NNW
Cosmos 2297 4.4 23:43:24 44° NE 23:43:24 44° NE 23:47:26 10° NNE
Terra 3.4 23:44:59 28° W 23:44:59 28° W 23:48:23 10° NW
Mayak 1.0 23:43:02 10° NNE 23:44:19 18° NE 23:44:19 18° NE
Meteor 2-19 Rocket 4.4 23:45:05 10° N 23:50:48 76° NNE 23:50:48 76° NNE
SL-08 ROCKET BODY 4.4 23:45:04 10° N 23:50:57 80° NNW 23:50:57 80° NNW
ATLAS 5 CENTAUR R/B 3.1 23:55:29 36° N 23:55:29 36° N 23:58:29 10° NNE
Cosmos 2082 Rocket 3.0 23:48:56 10° N 23:53:52 42° NE 23:53:52 42° NE
ATLAS 3B CENTAUR R/B 4.5 23:43:56 10° WSW 23:50:34 27° SW 23:50:34 27° SW
